This is the latest recevied weather packets stored in our database for station/object KD7DVD-1. If no packets are shown the sender has not sent any weather packets the latest 10 day(s).
| Time | Temp. | Humidity | Pressure | Rain* | Wind** | Luminosity | Snow |
|---|---|---|---|---|---|---|---|
| 1788141616 | 68° F | 57% | 763.1 mmHg | 0 in | - | - | - |
| 1788139817 | 68° F | 54% | 763.3 mmHg | 0 in | - | - | - |
| 1788138016 | 70° F | 55% | 763.5 mmHg | 0 in | - | - | - |
| 1788136216 | 71° F | 53% | 763.6 mmHg | 0 in | - | - | - |
| 1788134416 | 71° F | 51% | 763.6 mmHg | 0 in | - | - | - |
| 1788132616 | 69° F | 57% | 763.9 mmHg | 0 in | - | - | - |
| 1788130816 | 69° F | 60% | 763.9 mmHg | 0 in | - | - | - |
| 1788129016 | 69° F | 60% | 764.1 mmHg | 0 in | - | - | - |
| 1788127217 | 68° F | 61% | 764.3 mmHg | 0 in | - | - | - |
| 1788125416 | 67° F | 63% | 764.5 mmHg | 0 in | - | - | - |
| 1788123616 | 67° F | 60% | 764.6 mmHg | 0 in | - | - | - |
| 1788121816 | 67° F | 64% | 764.8 mmHg | 0 in | - | - | - |
| 1788120016 | 67° F | 67% | 765 mmHg | 0 in | - | - | - |
| 1788118215 | 65° F | 69% | 765.1 mmHg | 0 in | - | - | - |
| 1788116415 | 64° F | 71% | 765.1 mmHg | 0 in | - | - | - |
| 1788114615 | 64° F | 71% | 765.1 mmHg | 0 in | - | - | - |
| 1788112815 | 63° F | 72% | 765.2 mmHg | 0 in | - | - | - |
| 1788111017 | 62° F | 75% | 765.1 mmHg | 0 in | - | - | - |
| 1788109217 | 61° F | 75% | 765.1 mmHg | 0 in | - | - | - |
| 1788107417 | 60° F | 78% | 765.1 mmHg | 0 in | - | - | - |
| 1788105617 | 59° F | 79% | 765.2 mmHg | 0 in | - | - | - |
| 1788103817 | 58° F | 83% | 765.1 mmHg | 0 in | - | - | - |
| 1788102017 | 56° F | 87% | 765.1 mmHg | 0 in | - | - | - |
| 1788100217 | 54° F | 90% | 765 mmHg | 0 in | - | - | - |
| 1788098417 | 53° F | 90% | 764.8 mmHg | 0 in | - | - | - |
* Rain latest hour (hover to see other rain measurements)
** Current wind speed in m/s (hover to see current wind gust speed)